Regional Weather Roundup
Issued by NWS New Orleans/Baton Rouge, LA

Home | Current Version | Previous Version | Text Only | Print | Product List | Glossary On
Versions: 1 2 3 4 5 6 7 8 9 10 11 12 13 14 15 16 17 18 19 20 21 22 23 24 25 26 27
000
ASUS44 KLIX 212214
RWRLIX
NEW ORLEANS REGIONAL WEATHER ROUNDUP
NATIONAL WEATHER SERVICE NEW ORLEANS LA
500 PM CDT FRI JUL 21 2017

NOTE: "FAIR" INDICATES FEW OR NO CLOUDS BELOW 12,000 FEET WITH NO
      SIGNIFICANT WEATHER AND/OR OBSTRUCTIONS TO VISIBILITY.
      SKY/WX - SKY CONDITION AND SIGNIFICANT WEATHER.
      TMP - AIR TEMPERATURE.     DP    - DEWPOINT TEMPERATURE.
      RH  - RELATIVE HUMIDITY.   PRES  - PRESSURE.
      HI  - HEAT INDEX.          WCI   - WIND CHILL INDEX.

*  THESE STATIONS ARE NOT NWS OR FAA STATIONS AND ARE NOT UNDER
   NWS QUALITY CONTROL.

LAZ038-040-048-061>063-065>067-069-212300-
SOUTHEAST LOUISIANA

CITY           SKY/WX    TMP DP  RH WIND       PRES   REMARKS
N.O. INTL ARPT PTSUNNY   89  73  59 S7        30.00R HX  97
N.O. LAKEFRONT MOSUNNY   89  71  55 S6        30.00R HX  95
N.O. DOWNTOWN*   N/A     91  72  53 CALM        N/A  HX  98
RESERVE*         N/A     88  74  62 W3        30.01R HX  96
SLIDELL        TSTM      80  75  84 NE8       30.01R
BATON ROUGE    LGT RAIN  79  71  76 SE14      29.99R
BOOTHVILLE     NOT AVBL
BELLE CHASSE   NOT AVBL
BOGALUSA*      CLOUDY    75  70  83 SE5       30.03R THUNDER
GALLIANO*      CLOUDY    85  76  74 NW5       29.99R
NEW ROADS*       N/A     91  75  60 S6        29.97S HX 101
GONZALES*      MOCLDY    81  73  76 NE6       30.01R
HAMMOND*       CLOUDY    84  72  65 SE3       30.00R
HOUMA*         MOSUNNY   88  79  74 W6        29.99F HX 102
PORT FOURCHON* PTCLDY    88  77  70 S6G14     29.98F HX 100

$$

MSZ070-080>082-212300-
SOUTHERN MISSISSIPPI

CITY           SKY/WX    TMP DP  RH WIND       PRES   REMARKS
MCCOMB         PTSUNNY   95  68  41 CALM      29.98S HX  99
GULFPORT       CLOUDY    76  73  91 NW3       30.00S
BILOXI         CLOUDY    81  71  72 NE6       30.00S
PASCAGOULA     PTSUNNY   90  76  63 W5        29.99S HX 101

$$

COASTAL OBSERVATIONS
LAKE AND NEARSHORE STATIONS

STATION/POSITION TIME  TEMP    WIND        PRES    WAVE
                       AIR SEA DIR/SP/G            HT/PER
                 (UTC) (F)     (DEG/KT/KT) (MB)    (FT/S)
PASCAGOULA       2142   89     210/  8/ 12 1015.3
WAVELAND YACHT   2142   82 90   30/ 14/ 17 1016.3
GRAND ISLE       2142   87 89  170/  5/ 10 1015.5
SOUTHWEST PASS   2136          190/  5/ 11   N/A
NEW CANAL        2142   89 89  210/  4/  5 1015.5
SHELL BEACH      2142   87 91   CALM  /  1 1015.8

OFFSHORE STATIONS

STATION/POSITION TIME  TEMP    WIND        PRES    WAVE
                       AIR SEA DIR/SP/G            HT/PER
                 (UTC) (F)     (DEG/KT/KT) (MB)    (FT/S)
64 S DAUPHIN ISL 2150   84 86  190/  8/ 10 1016.1    1/ 3

$$





USA.gov is the U.S. government's official web portal to all federal, state and local government web resources and services.